TimeCDT,TemperatureF,Dew PointF,Humidity,Sea Level PressureIn,VisibilityMPH,Wind Direction,Wind SpeedMPH,Gust SpeedMPH,PrecipitationIn,Events,Conditions,WindDirDegrees,DateUTC
12:54 AM,69.1,55.9,63,29.93,10.0,SW,8.1,-,N/A,,Clear,220,2012-09-22 05:54:00
1:54 AM,66.0,55.9,70,29.95,10.0,SSW,4.6,-,N/A,,Clear,200,2012-09-22 06:54:00
2:54 AM,66.9,55.9,68,29.96,10.0,Calm,Calm,-,N/A,,Clear,0,2012-09-22 07:54:00
3:54 AM,66.0,57.0,73,29.97,10.0,Calm,Calm,-,N/A,,Clear,0,2012-09-22 08:54:00
4:54 AM,66.0,57.0,73,29.98,10.0,Calm,Calm,-,N/A,,Clear,0,2012-09-22 09:54:00
5:54 AM,64.0,57.0,78,30.01,10.0,Calm,Calm,-,N/A,,Partly Cloudy,0,2012-09-22 10:54:00
6:54 AM,63.0,57.0,81,30.02,10.0,Calm,Calm,-,N/A,,Scattered Clouds,0,2012-09-22 11:54:00
7:54 AM,66.0,59.0,78,30.04,10.0,Calm,Calm,-,N/A,,Partly Cloudy,0,2012-09-22 12:54:00
8:54 AM,71.1,59.0,66,30.05,10.0,NNE,3.5,-,N/A,,Clear,20,2012-09-22 13:54:00
9:54 AM,75.9,54.0,46,30.06,10.0,NNE,3.5,-,N/A,,Clear,30,2012-09-22 14:54:00
10:54 AM,79.0,50.0,36,30.08,10.0,North,6.9,-,N/A,,Clear,10,2012-09-22 15:54:00
11:54 AM,81.0,46.9,30,30.08,10.0,NNE,12.7,-,N/A,,Clear,30,2012-09-22 16:54:00
12:54 PM,84.2,46.4,27,30.09,10.0,Variable,5.8,-,N/A,,Clear,0,2012-09-22 17:54:00
1:54 PM,84.0,44.1,25,30.05,10.0,North,9.2,-,N/A,,Clear,360,2012-09-22 18:54:00
2:54 PM,84.9,45.0,25,30.05,10.0,North,3.5,-,N/A,,Clear,350,2012-09-22 19:54:00
3:54 PM,84.9,45.0,25,30.05,10.0,NNW,5.8,-,N/A,,Clear,330,2012-09-22 20:54:00
4:54 PM,84.0,46.0,26,30.06,10.0,NNW,5.8,-,N/A,,Clear,340,2012-09-22 21:54:00
5:54 PM,82.0,45.0,27,30.06,10.0,North,8.1,-,N/A,,Clear,360,2012-09-22 22:54:00
6:54 PM,77.0,46.0,33,30.06,10.0,North,5.8,-,N/A,,Clear,350,2012-09-22 23:54:00
7:54 PM,77.0,46.0,33,30.07,10.0,North,4.6,-,N/A,,Clear,350,2012-09-23 00:54:00
8:54 PM,71.1,50.0,47,30.09,10.0,Calm,Calm,-,N/A,,Clear,0,2012-09-23 01:54:00
9:54 PM,68.0,52.0,56,30.10,10.0,Calm,Calm,-,N/A,,Partly Cloudy,0,2012-09-23 02:54:00
10:54 PM,64.4,53.6,68,30.12,10.0,North,5.8,-,N/A,,Partly Cloudy,360,2012-09-23 03:54:00
11:54 PM,68.0,48.9,50,30.15,10.0,NNE,11.5,-,N/A,,Clear,30,2012-09-23 04:54:00